Location: Fegersheim
(48.4916°N, 7.6814°E)
Time: 06:49:23
(UTC+00:00)

Daily predictions for brighter satellites

Satellite Brightness Start Highest point End
(mag) Time Altitude Azimuth Time Altitude Azimuth Time Altitude Azimuth
Cosmos 2322 3.9 16:10:05 10° SSW 16:15:45 77° WNW 16:21:28 10° NNE
Cosmos 2369 Rocket 4.0 16:14:02 10° N 16:16:43 13° NNE 16:19:23 10° ENE
Cosmos 1939 Rocket 4.4 16:14:40 10° E 16:16:56 15° ENE 16:19:13 10° NNE
Cosmos 1869 3.4 16:13:22 10° S 16:17:25 88° E 16:21:32 10° N
Cosmos 2184 Rocket 4.1 16:11:55 10° N 16:18:21 75° E 16:24:42 10° SSE
USA 281 4.1 16:13:05 10° E 16:18:25 27° NE 16:23:46 10° N
CORIOLIS 4.4 16:15:52 10° SE 16:20:59 46° ENE 16:26:09 10° N
Cosmos 1814 Rocket 4.1 16:17:41 10° SSW 16:23:01 78° ESE 16:28:20 10° NNE
Cosmos 1980 4.3 16:19:08 10° S 16:24:18 37° ESE 16:29:30 10° NE
Cosmos 2221 2.5 16:23:55 10° S 16:28:15 76° E 16:32:35 10° NNE
H-2A R/B 3.4 16:27:15 10° S 16:31:01 60° W 16:34:52 10° NNW
Cosmos 1570 Rocket 4.2 16:27:10 10° SSW 16:32:29 78° WNW 16:37:48 10° NNE
Cosmos 1500 Rocket 3.5 16:28:25 10° N 16:32:49 78° ENE 16:37:14 10° SSE
Abrixas rocket 3.3 16:30:31 10° W 16:33:06 35° SSW 16:35:40 10° SE
Meteor 2-2 Rocket 4.3 16:29:42 10° S 16:35:40 78° E 16:41:33 10° NNE
YAOGAN 6 2.6 16:32:11 10° SSE 16:35:51 87° ENE 16:39:30 10° NNW
CZ-4C R/B 3.1 16:34:47 10° NNE 16:38:25 87° WNW 16:42:03 10° SSW
Cosmos 405 Rocket 2.7 16:37:10 10° N 16:41:04 88° ENE 16:45:01 10° S
Cosmos 2297 4.4 16:38:09 10° NNW 16:43:16 33° NE 16:48:23 10° ESE
ADEOS Rocket 3.8 16:35:43 10° NNE 16:43:22 82° WNW 16:51:09 10° SSW
YAOGAN 1 4.1 16:44:13 12° E 16:46:19 16° ENE 16:49:00 10° NNE
Cosmos 1943 Rocket 3.3 16:42:02 10° N 16:46:26 23° NE 16:50:05 13° E
Cosmos 405 3.5 16:43:04 10° SSW 16:46:31 59° WNW 16:49:58 10° N
Cosmos 389 Rocket 3.4 16:44:17 10° SSE 16:47:11 26° E 16:49:21 14° NE
Cosmos 44 4.2 16:44:57 10° NNW 16:49:41 34° NE 16:54:10 12° ESE
H-2A R/B 3.3 16:46:51 10° S 16:51:07 56° WSW 16:55:16 10° NNW
BREEZE-M DEB (TANK) 1.8 16:49:42 10° WSW 16:51:52 56° SSE 16:53:03 22° E
Cosmos 2322 Rocket 4.3 16:48:27 10° W 16:52:23 19° NW 16:56:20 10° N
USA 215 3.7 16:47:51 13° ENE 16:53:29 48° SE 16:59:45 10° SSW
SL-16 R/B 3.3 16:49:53 10° SSE 16:54:12 23° ESE 16:56:52 16° ENE
Cosmos 1743 Rocket 4.2 16:50:42 10° NNW 16:55:09 62° W 16:59:32 10° S
COSMO-SKYMED 1 3.6 16:52:07 12° NE 16:55:21 26° E 16:59:00 10° SSE
CZ-2C R/B 3.9 16:52:17 10° ESE 16:56:25 26° ENE 17:00:25 10° N
Okean-O 3.7 16:54:08 10° ESE 16:57:40 24° ENE 17:01:13 10° N
Cosmos 2218 Rocket 4.4 16:52:07 10° N 16:57:47 37° ENE 17:03:24 10° SE
Cosmos 2150 Rocket 4.4 16:53:17 10° NNW 16:58:26 68° WSW 17:03:31 10° S
Cosmos 1818 3.9 16:54:32 10° NW 17:00:01 73° SW 17:05:26 10° SSE
AQUARIUS 4.3 16:57:16 10° SSE 17:01:46 82° WSW 17:06:18 10° NNW
Sich 1 3.0 16:59:56 10° N 17:04:20 65° ENE 17:08:40 10° SSE
Cosmos 1606 2.9 17:01:00 10° S 17:04:45 49° E 17:08:32 10° NNE
Okean O Rocket 2.0 17:04:29 10° S 17:08:48 67° WSW 17:13:10 10° NNW
Cosmos 2366 rocket 4.3 17:03:03 10° N 17:08:57 42° ENE 17:14:46 10° SE
Cosmos 2333 Rocket 3.4 17:04:23 10° WSW 17:09:44 41° NW 17:15:05 10° NNE
Helios 1A Rocket 3.7 17:07:32 14° ESE 17:10:15 28° ENE 17:13:43 10° N
ISS -3.6 17:08:56 10° SW 17:12:15 62° SSE 17:13:33 33° E
Nadezhda 1 Rocket 4.2 17:06:05 10° SSW 17:12:25 77° W 17:18:51 10° N
Cosmos 1125 Rocket 3.8 17:08:03 10° NNW 17:13:15 72° WSW 17:18:26 10° SSE
Cosmos 1356 3.2 17:10:40 10° N 17:14:06 67° ENE 17:17:30 10° SSE
COSMOS 2428 3.7 17:09:40 10° SW 17:15:11 46° NW 17:20:43 10° NNE
Cosmos 1805 Rocket 3.8 17:10:47 10° NNW 17:15:16 76° W 17:19:41 10° S
Meteor 1-20 Rocket 4.4 17:09:44 10° N 17:15:29 53° ENE 17:21:10 10° SSE
Feng Yun 1-1 Rocket 4.2 17:10:52 10° SSE 17:16:38 72° ENE 17:22:19 10° NNW
SAR-Lupe-4 4.2 17:15:58 31° ENE 17:16:41 34° E 17:19:59 10° SSE
CZ-4B R/B 1.0 17:17:16 23° NNE 17:18:59 71° ESE 17:22:04 10° S
Cosmos 2278 Rocket 3.3 17:15:00 10° NW 17:20:25 47° WSW 17:25:49 10° S
Cosmos 1666 Rocket 3.5 17:17:07 10° N 17:21:29 63° ENE 17:25:52 10° SSE
Cosmos 1151 Rocket 3.5 17:18:05 10° SSE 17:22:02 37° E 17:23:24 29° NE
IRS-1C Rocket 4.0 17:20:50 10° SSE 17:26:04 68° ENE 17:31:20 10° N
USA 267 3.2 17:21:44 14° ESE 17:27:25 79° NNE 17:34:00 10° NW
Cosmos 1328 Rocket 4.0 17:23:58 10° SSE 17:27:56 37° E 17:28:37 35° ENE
Lacrosse 5 rocket 2.9 17:26:19 10° S 17:28:07 17° SE 17:28:07 17° SE
ERS-2 2.0 17:29:46 19° NNE 17:32:19 88° ESE 17:35:59 10° SSW
Cosmos 2360 Rocket 4.5 17:29:51 10° WNW 17:33:24 17° NW 17:36:58 10° N
Cosmos 2341 Rocket 4.0 17:27:13 10° N 17:33:32 85° W 17:39:51 10° S
EO 1 Delta rocket 4.4 17:28:45 10° NNE 17:33:51 52° E 17:40:07 10° S
SAR-Lupe-1 4.1 17:33:32 50° ENE 17:33:53 52° E 17:37:24 10° S
SL-24 R/B 4.0 17:32:45 35° NE 17:34:02 49° E 17:37:43 10° S
Meteor 1-25 Rocket 4.1 17:28:42 10° N 17:34:19 70° ENE 17:39:57 10° SSE
NOSS 0 Rocket 4.3 17:28:52 10° SW 17:35:03 64° WNW 17:40:49 12° NNE
CZ-2D R/B 3.1 17:31:56 10° SSE 17:35:42 67° ENE 17:39:32 10° N
CZ-4 R/B 1.4 17:38:23 46° ESE 17:38:59 51° ENE 17:42:52 10° N
H-2A R/B 3.8 17:36:50 10° N 17:40:28 30° WNW 17:44:10 10° SW
Cosmos 2219 Rocket 3.9 17:36:05 10° WSW 17:40:56 29° NW 17:45:48 10° NNE
SKYMED 2 3.4 17:40:45 21° NNE 17:43:39 77° ESE 17:48:00 10° S
BREEZE-M DEB (TANK) 3.4 17:41:50 10° SW 17:43:12 28° SSW 17:43:12 28° SSW
USA 81 3.9 17:39:52 10° N 17:45:11 85° E 17:50:28 10° S
SL-24 DEB 4.3 17:42:17 10° NNE 17:47:01 58° E 17:51:40 10° S
CREW DRAGON DEMO-1 DEB 3.3 17:45:09 10° WNW 17:47:43 58° W 17:47:43 58° W
Cosmos 2285 Rocket 3.9 17:42:16 10° NNW 17:48:44 79° ENE 17:55:06 10° SSE
Cosmos 2237 Rocket 2.7 17:44:27 10° SW 17:49:59 58° WNW 17:54:26 16° NNE
Cosmos 1939 Rocket 3.4 17:47:38 10° S 17:51:26 57° W 17:55:18 10° NNW
Cosmos 1633 Rocket 3.1 17:47:48 10° NNW 17:52:13 78° W 17:56:34 10° S
H-2A R/B 2.1 17:52:26 34° SE 17:54:29 53° ENE 17:59:33 10° N
SL-8 Rocket 4.1 17:51:29 10° NNW 17:57:41 75° W 18:03:55 10° S
Cosmos 864 Rocket 4.4 17:51:22 10° N 17:57:45 88° E 18:04:02 10° S
Cosmos 773 Rocket 4.0 17:53:54 10° S 17:59:00 54° ESE 17:59:15 53° E
CSL-04 Rocket 3.6 18:01:44 53° E 18:02:17 56° ENE 18:07:30 10° N
Cosmos 2369 Rocket 2.5 17:56:48 10° NNW 18:02:10 46° NE 18:02:10 46° NE
USA 281 3.2 17:55:45 10° SSE 18:02:20 83° WSW 18:08:56 10° NNW
MOS 1 Rocket 3.6 18:03:47 48° NE 18:05:02 62° E 18:10:25 10° S
Cosmos 783 Rocket 4.4 18:00:14 10° SSW 18:05:32 83° ESE 18:07:10 46° NNE
Cosmos 2181 Rocket 4.1 17:59:07 10° SSW 18:05:34 79° W 18:11:59 10° N
Cosmos 1821 Rocket 4.0 18:05:23 10° N 18:11:28 54° ENE 18:11:29 54° ENE
YAOGAN 1 2.8 18:21:23 59° SW 18:21:56 67° WSW 18:26:16 10° NNW
SL-08 R/B 4.4 18:20:15 10° N 18:26:28 87° W 18:32:35 10° S
Cosmos 1470 Rocket 4.0 18:23:19 10° NNW 18:27:22 57° W 18:27:22 57° W
Cosmos 2297 4.5 18:22:11 10° NW 18:27:40 50° WSW 18:33:09 10° S
Cosmos 1943 Rocket 2.2 18:25:15 10° NNW 18:30:48 77° WSW 18:31:41 62° S
Meteor 1-14 Rocket 4.4 18:24:59 10° NNW 18:30:55 78° W 18:36:53 10° S
Cosmos 44 4.0 18:26:03 10° NW 18:31:14 57° WSW 18:32:40 43° S
COSMO-SKYMED 1 4.0 18:29:20 21° NNW 18:31:36 36° WNW 18:35:34 10° SW
Okean-O 3.7 18:29:42 10° S 18:33:55 43° W 18:38:10 10° NNW
CZ-2C R/B 3.8 18:31:06 10° S 18:36:05 49° W 18:40:52 10° NNW
USA 215 3.3 18:35:13 53° NNE 18:36:42 69° NNW 18:43:11 10° WSW
ARGOS 3.6 18:38:31 52° NNW 18:38:31 52° NNW 18:42:32 10° NNW
Cosmos 1867 3.9 18:32:06 10° SW 18:37:28 59° NW 18:37:58 57° NNW
SL-16 R/B 2.5 18:32:12 10° SW 18:37:49 65° WNW 18:38:47 55° NNW
ISS -0.6 18:45:51 10° W 18:46:31 15° W 18:46:31 15° W
USA 267 4.3 19:09:07 33° SSW 19:10:50 39° SW 19:16:52 10° WNW
CZ-4 R/B 4.2 19:14:25 16° W 19:14:25 16° W 19:16:47 10° NW
H-2A R/B 4.1 19:33:04 23° WSW 19:34:11 25° W 19:38:27 10° NW
Cosmos 2369 Rocket 4.1 19:41:08 10° NW 19:43:59 25° WNW 19:43:59 25° WNW
